User: anonymous
Location: Caltech
(34.1382°N, 118.1253°W)
Time: 10:57:54
(UTC-07:00)
Language:

Iridium 75 - Orbit

View from above orbital plane
View from above orbital plane
View from above satellite
View from above satellite

Ground track
Ground track

The orbit data is extracted from the following two-line orbital elements,

1 25346U 98032E   14292.48707560  .00000368  00000-0  12424-3 0   272
2 25346 086.3935 270.2273 0002238 102.2604 011.2981 14.34218524860391
Epoch (UTC): 19 October 2014 11:41:23
Eccentricity: 0.0002238
inclination: 86.3935°
perigee height: 776 km
apogee height: 779 km
right ascension of ascending node: 270.2273°
argument of perigee: 102.2604°
revolutions per day: 14.34218524
mean anomaly at epoch: 11.2981°
orbit number at epoch: 86039

The dashed part of the orbit path shows where the satellite is in the earth's shadow,  

DLR